GW4111 Weather Reports


time (UTC)temp
F
wind
direction
speed
knots
gust
knots
rain 1hr
in
rain 24hr
in
rain mn
in
humidity
%
barometer
mb
20260505041540 64 245 5.2 19.1 0.00 0.00 0.00 65 1002.1
20260505040036 63 255 1.7 7.8 0.00 0.00 0.00 65 1001.8
20260505034538 62 0 0.0 4.3 0.00 0.00 0.00 65 1001.5
20260505033038 60 0 0.0 4.3 0.00 0.00 0.00 65 1001.6
20260505031540 60 0 0.0 5.2 0.00 0.00 0.00 65 1002.0
20260505030038 60 0 0.0 4.3 0.00 0.00 0.00 65 1002.3
20260505024539 60 197 0.9 7.8 0.00 0.00 0.00 65 1002.3
20260505023036 59 0 0.9 5.2 0.00 0.00 0.00 65 1002.3
20260505021539 59 158 2.6 10.4 0.00 0.00 0.00 64 1002.4
20260505020038 59 0 0.0 0.9 0.00 0.00 0.00 56 1002.3
20260505014538 59 0 0.0 0.9 0.00 0.00 0.00 55 1002.2
20260505013039 59 0 0.0 2.6 0.00 0.00 0.00 55 1002.1
20260505011541 59 194 0.0 2.6 0.00 0.00 0.00 55 1002.3
20260505010048 60 0 0.0 3.5 0.00 0.00 0.00 54 1002.2
20260505004538 62 0 0.0 3.5 0.00 0.00 0.00 52 1002.2
20260505003038 64 0 0.0 2.6 0.00 0.00 0.00 48 1002.3
20260505001540 66 0 0.0 3.5 0.00 0.00 0.00 46 1002.2
20260505000044 68 255 0.9 6.1 0.00 0.00 0.00 40 1002.2
20260504234536 69 0 0.9 6.1 0.00 0.00 0.00 39 1002.2
20260504233033 70 0 1.7 9.6 0.00 0.00 0.00 40 1002.2
20260504231544 70 197 2.6 11.3 0.00 0.00 0.00 40 1002.4
20260504230050 70 139 5.2 13.9 0.00 0.00 0.00 41 1002.4
20260504224537 70 259 4.3 10.4 0.00 0.00 0.00 40 1002.5
20260504223038 70 222 4.3 13.0 0.00 0.00 0.00 39 1002.4
20260504221540 71 262 4.3 12.2 0.00 0.00 0.00 36 1002.4
20260504220041 71 197 3.5 15.6 0.00 0.00 0.00 35 1002.3
20260504214537 72 128 6.1 13.9 0.00 0.00 0.00 33 1002.3
20260504213038 72 283 7.0 18.2 0.00 0.00 0.00 34 1002.3
20260504211539 71 290 4.3 13.9 0.00 0.00 0.00 38 1002.3
20260504210043 71 191 3.5 13.0 0.00 0.00 0.00 40 1002.5
20260504204547 71 221 5.2 13.0 0.00 0.00 0.00 40 1002.7
20260504203053 72 215 5.2 13.0 0.00 0.00 0.00 38 1002.8
20260504201540 72 177 1.7 9.6 0.00 0.00 0.00 41 1002.8
20260504200038 72 242 1.7 10.4 0.00 0.00 0.00 41 1002.9
20260504194538 71 193 5.2 13.9 0.00 0.00 0.00 41 1003.1
20260504193038 70 244 6.1 21.7 0.00 0.00 0.00 42 1003.5
20260504191542 71 226 6.1 13.0 0.00 0.00 0.00 43 1003.8
20260504190050 70 252 6.1 14.8 0.00 0.00 0.00 42 1004.0
20260504184540 70 254 7.0 12.2 0.00 0.00 0.00 44 1004.1
20260504183039 70 215 5.2 13.0 0.00 0.00 0.00 44 1004.4
20260504181542 70 232 5.2 12.2 0.00 0.00 0.00 45 1004.5
20260504180039 69 166 4.3 13.9 0.00 0.00 0.00 46 1004.7
20260504174536 68 248 7.0 14.8 0.00 0.00 0.00 47 1004.9
20260504173035 66 276 9.6 19.1 0.00 0.00 0.00 48 1005.0
20260504171539 66 253 7.0 15.6 0.00 0.00 0.00 49 1005.1
20260504081542 48 0 0.9 4.3 0.00 0.00 0.00 65 1007.1
20260504044536 51 217 6.1 12.2 0.00 0.00 0.00 64 1008.6
20260504043036 50 245 5.2 13.9 0.00 0.00 0.00 63 1008.7